Regional Weather Roundup
Issued by NWS Charleston, SC

Current Version | Previous Version | Graphics & Text | Print | Product List | Glossary On
Versions: 1 2 3 4 5 6 7 8 9 10 11 12 13 14 15 16 17 18 19 20 21 22 23 24 25 26 27 28 29 30 31 32 33 34 35 36 37 38 39 40 41 42 43 44 45 46 47 48 49 50
000
ASUS42 KCHS 300127
RWRCHS

REGIONAL WEATHER ROUNDUP
NATIONAL WEATHER SERVICE CHARLESTON SC
900 PM EDT WED JUL 29 2015

NOTE: "FAIR" INDICATES FEW OR NO CLOUDS BELOW 12,000 FEET WITH NO
SIGNIFICANT WEATHER AND/OR OBSTRUCTIONS TO VISIBILITY.

NOT ALL STATIONS ARE QUALITY CONTROLLED BY THE NATIONAL
WEATHER SERVICE. USE DATA WITH CAUTION...ESPECIALLY
DEWPOINT OBSERVATIONS.

SCZ027-030-031-034>040-042>050-300200-
...SOUTHEAST SOUTH CAROLINA...

CITY           SKY/WX    TMP DP  RH WIND       PRES   REMARKS
N CHARLESTON   PTCLDY    82  74  76 SE7       29.95R
WATERFRONT PRK   N/A     83  78  84 E9        29.92R HX  93
MOUNT PLEASANT LGT RAIN  81  77  89 CALM      29.95R
JOHNS ISLAND   FAIR      81  77  89 E5        29.95S
PINOPOLIS      NOT AVBL
MONCKS CORNER  FAIR      82  72  69 CALM      29.96R
SUMMERVILLE    FAIR      82  72  69 E3        29.97R
BEAUFORT MCAS  PTCLDY    84  78  82 SE5       29.95R HX  95
BEAUFORT ARPT  FAIR      82  79  89 E3        29.95R HX  93
HILTON HEAD IS PTCLDY    82  79  89 E5        29.96R HX  93
WALTERBORO     CLEAR     84  73  70 SE6       29.97R HX  91
ALLENDALE      FAIR      86  73  66 SE6       29.93R HX  93

...SOUTHERN MIDLANDS AND PEE DEE...

CITY           SKY/WX    TMP DP  RH WIND       PRES   REMARKS
GEORGETOWN     NOT AVBL
KINGSTREE      NOT AVBL
ORANGEBURG     MOCLDY    86  69  56 CALM      29.94R HX  90
BARNWELL       CLOUDY    88  75  66 CALM      29.94S HX  97
AIKEN          FAIR      84  70  61 CALM      29.99R
MANNING        FAIR      82  68  61 SE5       29.96R
COLUMBIA       MOCLDY    90  73  57 N3        29.93R HX  98
SUMTER         PTCLDY    89  67  48 E5        29.92R HX  91
FLORENCE       CLEAR     87  74  64 SE9       29.95R HX  95
MYRTLE BEACH   CLEAR     82  70  65 E10       29.97
N MYRTLE BEACH PTCLDY    82  73  74 E8        29.95S

$$

GAZ063-065-086>088-099>101-113>116-118-119-134>141-150-300200-
...SOUTHEAST GEORGIA...

CITY           SKY/WX    TMP DP  RH WIND       PRES   REMARKS
SAVANNAH ARPT  MOCLDY    83  73  72 SE8       29.95R
HUNTER AAF     PTCLDY    82  78  90 SE8       29.93R HX  91
FORT STEWART   PTCLDY    82  73  75 SE7       29.93R
STATESBORO     PTCLDY    85  76  75 S5        29.94R HX  94
SYLVANIA       MOCLDY    86  75  69 CALM      29.94S HX  95
CLAXTON        FAIR      86  75  70 SE3       29.94R HX  95

...CSRA...CENTRAL AND FAR SOUTHEAST GEORGIA...

CITY           SKY/WX    TMP DP  RH WIND       PRES   REMARKS
THOMSON        PTCLDY    79  79 100 CALM      30.00R
AUGUSTA-BUSH   MOCLDY    86  74  67 W5        29.92R HX  94
AUGUSTA-DANIEL MOCLDY    87  74  64 NW5       29.95R HX  95
SWAINSBORO     FAIR      82  77  83 CALM      29.95R HX  91
VIDALIA        HVY RAIN  86  79  79 E5        29.94R HX  99
EASTMAN        FAIR      83  83 100 CALM      29.96R HX  98
HAZLEHURST     MOCLDY    86  76  72 CALM      29.93R HX  96
ALMA           TSTM      85  76  74 E8        29.93R HX  94
WAYCROSS       MOCLDY    87  78  74 S8        29.95R HX 100
JESUP          MOCLDY    84  73  70 S3        29.95S HX  91
BAXLEY         TSTM      79  77  94 SW16      29.96R
BRUNSWICK      PTCLDY    82  77  83 SE6       29.96R HX  91
SAINT SIMONS   PTCLDY    81  76  84 SE7       29.95S

$$

SCZ027-028-034-036>038-045-046-048>050-GAZ119-141-300200-
...LAKE AND SUPPLEMENTAL COASTAL OBSERVATIONS...

STATION/POSITION TIME  TEMP    WIND        PRES    WAVE   SWELL
                       AIR SEA DIR/SP/G            HT/PER HT/PER/DIR
                 (UTC) (F)     (DEG/KT/KT) (MB)    (FT/S) (FT/S/D)
UPR LAKE MARION  NOT AVBL
WINYAH BAY       0000   82      90/ 11     1013.0
LAKE MURRAY      0000   88     290/  5/  6 1012.5R
ACE BASIN NERRS  0000   83      80/  3     1014.0S
FORT PULASKI     0000   82 86                N/A
SAPELO ISLAND    0100   81     120/  4     1014.0S

$$

ANZ835-935-AMZ111-154-330-350-352-354-370-450-454-472-300200-
...C-MAN AND BUOY OBSERVATIONS...

STATION/POSITION TIME  TEMP    WIND        PRES    WAVE   SWELL
                       AIR SEA DIR/SP/G            HT/PER HT/PER/DIR
                 (UTC) (F)     (DEG/KT/KT) (MB)    (FT/S) (FT/S/D)
BUOY 41004       0050   84 85   70/ 12/ 16 1013.1R   4/ 5   2/ 7
BUOY 41008       0050   81 82  110/  4/  4 1014.0F   2/ 4   2/ 70/ 4
FOLLY BEACH CMAN 0100   82      90/  8/  9 1014.4R
CAPERS NEARSHORE 0008   82      90/ 10/ 14 1013.6S
FRIPP NEARSHORE  0000   83     110/ 12/ 14 1013.4R


STATION/POSITION TIME  TEMP    WIND        PRES    WAVE   SWELL
                       AIR SEA DIR/SP/G            HT/PER HT/PER/DIR
                 (UTC) (F)     (DEG/KT/KT) (MB)    (FT/S) (FT/S/D)
5E ST. MARYS GA  0021      82                N/A     2/ 4
FRYING PAN BUOY  0050   83 84   50/ 12/ 14 1013.8R   4/ 5   2/100/ 6
BUOY 41025       2350   82 85  100/ 16/ 19 1014.3    4/ 6   2/ 90/10
CAPE LOOKOUT NC  0100   81      60/ 11/ 13 1013.8F
BUOY 41002       0050   83 82  210/ 16/ 19 1015.4R   5/ 7   2/100/10
BUOY 41010       0020   83 84  230/ 17/ 21 1012.5F
ST AUGUSTINE FL  0100   80 83  260/  6/  8 1015.2S


$$



USA.gov is the U.S. government's official web portal to all federal, state and local government web resources and services.